Flight Track Log - Related Links

Times and Time Zones

All times are in EDT time to prevent confusion due to time zone crossing. See the ASQ4305 flight status page for this flight to view local times or setup timezone preferences in your user account.

Time Position Orientation Groundspeed Altitude Reporting Facility
EDT Latitude Longitude Course Direction KTS MPH feet Rate Location/Type
Thu 11:07:52 AM 29.9581 -95.3481 234° Southwest 173 199 700  Level Houston Center
Thu 11:08:35 AM 29.9406 -95.3761 North 208 239 2,200 1,846 Climbing Houston Center
Thu 11:09:36 AM 30.0033 -95.3664 24° Northeast 273 314 3,900 885 Climbing Houston Center
Thu 11:10:37 AM 30.0733 -95.3306 29° Northeast 275 316 4,000 148 Climbing Houston Center
Thu 11:11:38 AM 30.1414 -95.2875 42° Northeast 275 316 4,200 1,317 Climbing Houston Center
Thu 11:12:40 AM 30.1969 -95.2292 42° Northeast 280 322 6,700 2,439 Climbing Houston Center
Thu 11:13:41 AM 30.2550 -95.1689 45° Northeast 278 320 9,200 2,063 Climbing Houston Center
Thu 11:14:16 AM 30.2831 -95.1361 42° Northeast 281 323 10,000 947 Climbing Houston Center
Thu 11:15:16 AM 30.3494 -95.0661 40° Northeast 294 338 10,700 900 Climbing Houston Center
Thu 11:16:16 AM 30.4242 -94.9942 36° Northeast 324 373 11,800 1,150 Climbing Houston Center
Thu 11:17:16 AM 30.5075 -94.9244 32° Northeast 344 396 13,000 1,250 Climbing Houston Center
Thu 11:18:16 AM 30.5922 -94.8622 33° Northeast 357 411 14,300 1,250 Climbing Houston Center
Thu 11:19:16 AM 30.6817 -94.7950 35° Northeast 369 425 15,500 1,200 Climbing Houston Center
Thu 11:20:16 AM 30.7644 -94.7275 33° Northeast 369 425 16,700 1,250 Climbing Houston Center
Thu 11:21:16 AM 30.8622 -94.6531 32° Northeast 375 432 18,000 1,230 Climbing Houston Center
Thu 11:22:18 AM 30.9583 -94.5817 35° Northeast 372 428 19,200 1,180 Climbing Fort Worth Center
Thu 11:23:18 AM 31.0361 -94.5186 34° Northeast 366 421 20,400 1,200 Climbing Fort Worth Center
Thu 11:24:18 AM 31.1222 -94.4506 33° Northeast 366 421 21,600 1,200 Climbing Fort Worth Center
Thu 11:25:18 AM 31.2106 -94.3847 34° Northeast 366 421 22,800 1,250 Climbing Fort Worth Center
Thu 11:26:18 AM 31.2964 -94.3161 33° Northeast 371 427 24,100 1,250 Climbing Fort Worth Center
Thu 11:27:18 AM 31.3844 -94.2500 34° Northeast 371 427 25,300 1,150 Climbing Fort Worth Center
Thu 11:28:18 AM 31.4706 -94.1814 34° Northeast 366 421 26,400 850 Climbing Fort Worth Center
Thu 11:29:18 AM 31.5522 -94.1175 34° Northeast 374 430 27,000 500 Climbing Fort Worth Center
Thu 11:30:18 AM 31.6506 -94.0383 33° Northeast 379 436 27,400 800 Climbing Fort Worth Center
Thu 11:31:18 AM 31.7444 -93.9664 33° Northeast 388 447 28,600 2,800 Climbing Fort Worth Center
Thu 11:32:18 AM 31.8469 -93.8894 35° Northeast 408 470 33,000 950 Climbing Fort Worth Center
Thu 11:33:18 AM 31.9264 -93.8250 35° Northeast 400 460 30,500 -750 Descending Fort Worth Center
Thu 11:34:18 AM 32.0181 -93.7503 34° Northeast 406 467 31,500 1,000 Climbing Fort Worth Center
Thu 11:35:18 AM 32.1200 -93.6678 37° Northeast 406 467 32,500 750 Climbing Fort Worth Center
Thu 11:36:18 AM 32.2014 -93.5958 34° Northeast 406 467 33,000 250 Climbing Fort Worth Center
Thu 11:37:18 AM 32.3033 -93.5153 34° Northeast 420 483 33,000  Level Fort Worth Center
Thu 11:38:18 AM 32.4053 -93.4347 34° Northeast 432 497 33,000  Level Fort Worth Center
Thu 11:39:18 AM 32.5089 -93.3514 34° Northeast 437 503 33,000  Level Fort Worth Center
Thu 11:40:18 AM 32.6086 -93.2703 34° Northeast 437 503 33,000  Level Fort Worth Center
Thu 11:41:18 AM 32.7103 -93.1892 35° Northeast 437 503 33,000  Level Fort Worth Center
Thu 11:42:18 AM 32.8119 -93.1053 34° Northeast 432 497 33,000  Level Fort Worth Center
Thu 11:43:18 AM 32.9114 -93.0264 34° Northeast 437 503 33,000  Level Fort Worth Center
Thu 11:44:18 AM 33.0147 -92.9419 35° Northeast 437 503 33,000  Level Fort Worth Center
Thu 11:45:18 AM 33.1142 -92.8600 42° Northeast 437 503 33,000  Level Fort Worth Center
Thu 11:47:30 AM 33.3106 -92.6517 54° Northeast 422 486 33,000  Level Memphis Center
Thu 11:48:30 AM 33.3817 -92.5342 57° Northeast 428 493 33,000  Level Memphis Center
Thu 11:49:30 AM 33.4483 -92.4111 53° Northeast 428 493 33,000  Level Memphis Center
Thu 11:50:30 AM 33.5211 -92.2958 56° Northeast 433 498 33,000  Level Memphis Center
Thu 11:51:30 AM 33.5878 -92.1750 54° Northeast 433 498 33,000  Level Memphis Center
Thu 11:52:30 AM 33.6603 -92.0567 58° Northeast 433 498 33,000  Level Memphis Center
Thu 11:53:30 AM 33.7244 -91.9331 55° Northeast 433 498 33,000  Level Memphis Center
Thu 11:54:30 AM 33.7969 -91.8094 56° Northeast 438 504 33,000 -300 Level Memphis Center
Thu 11:55:30 AM 33.8736 -91.6731 56° Northeast 437 503 32,400 -900 Descending Memphis Center
Thu 11:56:30 AM 33.9353 -91.5639 48° Northeast 432 497 31,200 -1,400 Descending Memphis Center
Thu 11:57:30 AM 34.0156 -91.4547 49° Northeast 438 504 29,600 -1,900 Descending Memphis Center
Thu 11:58:30 AM 34.0936 -91.3481 49° Northeast 433 498 27,400 -2,550 Descending Memphis Center
Thu 11:59:30 AM 34.1717 -91.2383 49° Northeast 423 487 24,500 -2,300 Descending Memphis Center
Thu 12:00:30 PM 34.2517 -91.1261 48° Northeast 429 494 22,800 -2,250 Descending Memphis Center
Thu 12:01:30 PM 34.3275 -91.0236 49° Northeast 417 480 20,000 -2,650 Descending Memphis Center
Thu 12:02:30 PM 34.4031 -90.9186 49° Northeast 412 474 17,500 -2,200 Descending Memphis Center
Thu 12:03:30 PM 34.4808 -90.8106 49° Northeast 397 457 15,600 -1,950 Descending Memphis Center
Thu 12:04:30 PM 34.5500 -90.7128 52° Northeast 383 441 13,600 -1,750 Descending Memphis Center
Thu 12:05:30 PM 34.6106 -90.6169 51° Northeast 372 428 12,100 -900 Descending Memphis Center
Thu 12:06:30 PM 34.6756 -90.5189 52° Northeast 366 421 11,800 -750 Descending Memphis Center
Thu 12:07:30 PM 34.7297 -90.4356 52° Northeast 339 390 10,600 -1,350 Descending Memphis Center
Thu 12:08:30 PM 34.7778 -90.3597 51° Northeast 299 344 9,100 -800 Descending Memphis Center
Thu 12:09:30 PM 34.8278 -90.2836 53° Northeast 286 329 9,000 -50 Descending Memphis Center
Thu 12:10:30 PM 34.8736 -90.2103 52° Northeast 280 322 9,000  Level Memphis Center
Thu 12:11:30 PM 34.9111 -90.1519 29° Northeast 263 303 9,000  Level Memphis Center
Thu 12:12:30 PM 34.9675 -90.1139 356° North 236 272 9,000 -313 Level Memphis Center
Thu 12:13:06 PM 35.0000 -90.1167 360° North 238 274 8,500 -1,137 Descending Anchorage Center
Thu 12:14:05 PM 35.0667 -90.1167 15° North 233 268 7,200 -1,128 Descending Anchorage Center
Thu 12:15:03 PM 35.1167 -90.1000 360° North 223 257 6,300 -1,333 Descending Anchorage Center
Thu 12:16:02 PM 35.1833 -90.1000 15° North 221 254 4,600 -1,538 Descending Anchorage Center
Thu 12:17:00 PM 35.2333 -90.0833 107° East 225 259 3,300 -821 Descending Anchorage Center
Thu 12:17:59 PM 35.2167 -90.0167 151° Southeast 234 269 3,000 -270 Descending Anchorage Center
Thu 12:18:51 PM 35.1667 -89.9833 165° South 196 226 2,800 -513 Descending Anchorage Center
Thu 12:19:56 PM 35.1167 -89.9667 180° South 168 193 2,000 -755 Descending Anchorage Center
Thu 12:21:14 PM 35.0833 -89.9667 191° South 138 159 1,000 -769 Descending Anchorage Center
Thu 12:28:52 PM 34.3727 -90.1389 12° North  Level Estimated
Thu 12:29:52 PM 35.0333 -89.9667 312° West  Level FlightAware Approximate
Thu 12:30:52 PM 35.0947 -90.0493 131° Southeast  Level FlightAware Approximate
Thu 12:31:52 PM 35.0320 -89.9623 290° West  Level Estimated
Thu 12:32:52 PM 35.0333 -89.9667 290° West  Level FlightAware Approximate

Login

Don't have an account? Register now (free) for customized features, flight alerts, and more!